Location: Newark
(44.6419°N, 3.3467°E)
Time: 00:19:20
(UTC+00:00)

N. Korean satellite - Visible Passes

Search period start: 13 November 2019 00:00
Search period end: 23 November 2019 00:00
Orbit: 456 x 506 km, 97.2° (Epoch: 12 November)

Date Brightness Start Highest point End Pass type
(mag) Time Alt. Az. Time Alt. Az. Time Alt. Az.
13 Nov 7.1 05:34:45 10° NNE 05:38:28 65° E 05:42:09 10° S visible
13 Nov 9.7 17:46:06 10° SW 17:48:39 18° W 17:51:15 10° NW visible
14 Nov 8.7 05:09:40 10° NNE 05:13:02 31° E 05:16:21 10° SSE visible
14 Nov 8.4 17:19:48 10° SSW 17:23:08 36° W 17:26:32 10° NNW visible
15 Nov 9.8 04:45:05 10° NE 04:47:30 16° E 04:49:52 10° SE visible
15 Nov 6.8 16:54:06 10° S 16:57:41 77° WSW 17:01:23 10° NNW visible
16 Nov 6.6 05:52:00 10° N 05:55:44 75° WNW 05:59:24 10° SSW visible
16 Nov 10.2 18:04:43 10° WSW 18:06:04 12° W 18:07:24 10° WNW visible
17 Nov 7.6 05:26:42 10° NNE 05:30:20 51° E 05:33:56 10° S visible
17 Nov 9.4 17:37:33 10° SSW 17:40:27 23° W 17:43:24 10° NW visible
18 Nov 9.1 05:01:43 10° NE 05:04:51 25° E 05:07:56 10° SSE visible
18 Nov 7.9 17:11:28 10° S 17:14:56 45° W 17:18:31 10° NNW visible
19 Nov 10.1 04:37:27 10° ENE 04:39:16 13° E 04:41:04 10° ESE visible
19 Nov 6.9 06:09:21 10° N 06:12:54 45° WNW 06:16:25 10° SW visible
19 Nov 6.6 16:45:54 10° SSE 16:49:32 84° E 16:53:15 10° N visible
20 Nov 6.6 05:43:51 10° NNE 05:47:34 86° E 05:51:14 10° SSW visible
20 Nov 10.0 17:55:43 10° SW 17:57:48 15° W 17:59:55 10° NW visible
21 Nov 8.1 05:18:37 10° NNE 05:22:08 40° E 05:25:36 10° S visible
21 Nov 8.9 17:29:02 10° SSW 17:32:13 28° W 17:35:27 10° NW visible
22 Nov 9.4 04:53:47 10° NE 04:56:36 20° E 04:59:23 10° SE visible
22 Nov 7.4 17:03:08 10° S 17:06:44 58° W 17:10:24 10° NNW visible
